📊 Raw Sensor Data

Showing records 45651 to 45675 of 85,056 total

ID Distance (ft) Battery V Battery A Int Temp (°F) Int Humid (%) Ext Temp (°F) Solar V RSSI SNR Time Stamp
39418 15.6 4.01 -5 57 47 57 0.00 -75 8 05/01/2025 09:30 PM
39417 15.5 3.96 -5 58 47 58 0.00 -73 8 05/01/2025 09:15 PM
39416 15.6 3.96 -5 59 48 59 0.00 -75 8 05/01/2025 09:00 PM
39415 15.5 3.96 -5 60 49 60 0.00 -75 8 05/01/2025 08:45 PM
39414 15.5 3.96 -5 61 51 61 0.00 -73 8 05/01/2025 08:30 PM
39413 15.5 3.96 -5 63 52 62 0.30 -75 8 05/01/2025 08:15 PM
39412 -- 3.95 -10 65 53 63 3.30 -74 8 05/01/2025 08:00 PM
39411 -- 4.03 0 70 53 66 4.50 -76 8 05/01/2025 07:46 PM
39410 -- 4.04 0 74 52 69 4.60 -74 7 05/01/2025 07:30 PM
39409 -- 4.05 9 78 51 72 4.50 -72 9 05/01/2025 07:16 PM
39408 -- 4.01 -12 80 51 74 4.60 -75 8 05/01/2025 07:00 PM
39407 -- 4.10 13 83 49 77 4.50 -72 8 05/01/2025 06:45 PM
39406 -- 4.01 0 85 49 78 5.10 -75 8 05/01/2025 06:30 PM
39405 -- 4.14 0 86 48 80 5.10 -73 8 05/01/2025 06:15 PM
39404 -- 4.04 0 88 48 78 5.10 -76 9 05/01/2025 06:00 PM
39403 -- 4.01 0 89 48 81 5.10 -74 7 05/01/2025 05:45 PM
39402 -- 4.01 0 90 47 82 5.10 -71 9 05/01/2025 05:30 PM
39401 -- 4.01 0 91 46 82 5.10 -72 9 05/01/2025 05:15 PM
39400 -- 4.01 0 93 45 81 5.10 -73 9 05/01/2025 05:00 PM
39399 -- 4.01 0 94 44 86 5.10 -74 8 05/01/2025 04:45 PM
39398 -- 4.08 0 94 44 86 5.10 -75 9 05/01/2025 04:31 PM
39397 -- 4.01 0 95 43 86 5.10 -74 9 05/01/2025 04:15 PM
39396 -- 4.02 0 94 42 81 5.10 -73 8 05/01/2025 04:01 PM
39395 -- 4.01 0 95 41 83 5.10 -71 8 05/01/2025 03:45 PM
39394 -- 4.01 0 93 42 86 5.10 -72 8 05/01/2025 03:30 PM